Location: Larkspur
(54.4391°N, 113.7691°W)
Time: 12:44:06
(UTC+00:00)

METEOR M2 - Pass Details

Date: 11 December 2023
Orbit: 819 x 826 km, 98.4° (Epoch: 02 March)

Event Time Altitude Azimuth Distance (km) Brightness Sun altitude
Rises 14:42:10 0° 12° (NNE) 3,374 ? -8.5°
Reaches altitude 10° 14:44:39 10° 5° (N) 2,436 ? -8.2°
Maximum altitude 14:49:38 40° 298° (WNW) 1,202 ? -7.6°
Drops below altitude 10° 14:54:35 10° 230° (SW) 2,417 ? -7.0°
Sets 14:57:02 0° 223° (SW) 3,345 ? -6.6°
